Wind_Speed
27 26 23 24 24 27 24 25 23 19 13 11 7 5 5 6 9 9 11 10 10 14 11 12 15 14 15 19 15 12 14 9
25 27 26 23 21 22 24 28 22 19 16 13 10 6 5 8 13 14 12 12 16 14 11 12 19 15 19 20 17 12 9 10
21 26 25 23 20 21 20 25 32 20 17 12 12 8 7 6 8 17 15 13 13 12 9 17 18 15 19 20 19 9 11 18
19 25 25 23 21 24 21 19 25 29 21 16 11 10 8 8 5 7 15 8 10 10 14 15 14 20 20 22 24 7 14 11
17 21 24 26 23 22 22 21 24 21 29 20 11 10 7 7 7 7 10 8 6 11 16 17 18 23 23 25 24 9 14 8
15 18 23 24 25 25 24 21 22 20 24 29 16 13 7 5 8 8 11 12 12 11 14 18 18 25 26 27 23 10 16 11
13 17 21 23 23 29 26 21 22 18 19 27 23 16 11 7 6 9 12 14 18 17 16 14 16 19 27 30 28 15 15 13
13 15 17 21 23 24 26 22 22 17 18 22 27 19 14 10 6 7 13 13 19 22 22 21 22 22 25 33 28 19 21 13
15 16 17 19 20 24 22 22 22 16 18 18 27 22 17 12 10 7 11 13 16 23 25 25 24 25 22 33 27 18 17 14
15 16 15 15 18 20 20 22 21 19 17 16 22 22 19 14 12 9 5 11 14 17 26 26 22 23 23 22 32 22 17 17
19 17 14 14 14 19 18 22 19 18 15 15 20 26 20 17 13 9 9 5 11 18 21 28 29 22 26 25 25 26 16 18
20 18 13 14 13 15 16 20 21 17 18 15 18 22 22 19 14 10 9 10 4 10 26 24 23 20 26 23 22 26 19 12
16 12 10 9 17 15 15 17 20 17 16 15 13 17 25 21 16 10 8 10 8 4 10 25 23 17 22 20 20 24 23 21
15 12 12 10 7 12 13 18 17 18 16 12 13 15 21 21 19 12 7 7 11 3 3 11 27 22 28 22 16 22 30 16
15 6 7 10 13 10 12 13 16 18 14 12 16 12 17 19 20 15 7 6 11 6 2 11 12 18 36 26 11 11 28 26
11 10 10 12 10 9 10 13 15 16 15 16 14 11 9 15 18 14 10 6 8 9 4 5 10 12 32 43 22 14 15 13
14 10 6 12 14 9 10 13 16 15 16 15 16 15 14 14 16 12 11 7 6 6 9 7 8 13 23 32 35 27 20 17
12 13 12 11 10 11 12 13 15 15 17 13 14 17 14 14 12 12 12 8 6 6 7 9 10 14 15 16 42 45 36 31
9 11 11 10 11 10 11 12 13 14 14 15 17 13 11 11 13 17 13 8 5 3 4 8 12 10 18 14 26 35 37 37
9 10 9 9 9 10 12 13 12 13 13 15 13 11 10 9 10 13 14 9 5 4 1 4 10 11 18 16 24 32 35 32
Wind_Direction
2 358 4 8 9 359 340 342 341 328 324 323 330 323 286 233 213 192 200 210 191 206 232 194 199 188 174 165 166 165 157 162
7 1 3 14 8 352 351 345 345 330 321 313 309 315 295 267 215 200 205 217 218 233 263 224 193 206 183 170 171 181 205 167
8 358 2 6 14 355 354 352 340 340 327 315 306 303 283 268 265 231 217 239 234 236 208 183 185 197 185 175 169 139 183 189
8 356 3 4 8 354 355 359 338 340 340 327 320 315 296 267 252 249 228 234 204 203 191 195 206 194 189 180 173 115 172 188
3 360 359 5 13 349 356 358 344 350 334 336 319 315 310 264 231 214 204 197 187 194 190 202 205 192 193 186 182 182 184 193
356 4 352 2 9 350 354 359 340 350 342 326 336 315 322 288 240 214 199 200 188 201 217 217 212 205 199 190 190 187 204 219
343 359 350 354 8 350 354 352 334 348 338 320 326 326 319 332 249 222 211 203 190 189 195 205 215 211 199 197 182 190 206 214
328 352 338 342 352 347 346 338 329 339 337 326 322 329 321 322 316 234 216 212 211 196 192 195 220 222 213 209 203 217 176 196
323 329 325 332 347 346 343 332 327 337 328 326 318 328 328 324 317 309 224 215 218 218 204 203 213 222 224 213 209 202 191 191
314 319 313 317 339 345 339 328 328 328 322 326 314 321 328 321 311 318 273 223 219 226 225 209 226 212 216 203 180 185 174 188
297 294 302 306 334 333 334 325 323 320 322 322 311 318 331 326 310 303 326 264 214 220 222 227 225 206 205 205 201 192 194 185
286 288 292 315 325 326 326 317 325 318 321 316 327 317 327 332 325 305 311 318 254 224 227 234 223 185 192 197 199 200 218 205
286 268 293 313 322 329 328 320 320 320 316 315 329 318 324 338 325 307 313 320 326 258 226 218 212 216 193 200 210 211 219 196
313 281 281 290 306 324 330 318 319 314 320 316 325 332 320 333 337 331 317 299 334 320 237 230 220 211 198 196 199 211 227 221
337 305 337 331 320 350 330 318 314 324 327 333 329 336 310 327 336 333 311 313 339 359 248 240 223 214 205 194 161 204 209 213
327 319 324 318 312 337 321 322 318 320 326 319 325 6 333 324 329 331 325 313 331 22 356 259 243 188 212 211 202 183 186 200
350 353 301 331 352 336 324 319 323 324 323 329 324 326 3 327 332 337 337 311 312 354 16 8 254 228 185 212 214 207 204 196
335 337 351 334 331 324 326 321 323 321 319 335 316 313 322 332 339 336 330 321 308 310 332 349 334 249 206 188 219 218 214 215
338 341 340 333 326 327 331 324 323 324 328 332 333 319 318 333 347 342 334 330 321 302 324 308 322 290 218 223 200 213 219 217
337 340 342 341 338 339 332 330 329 327 328 322 333 321 343 351 340 335 336 322 308 314 2 339 338 330 234 227 222 224 226 235
Height
1563 1560 1558 1555 1551 1548 1552 1552 1545 1542 1541 1540 1539 1538 1539 1538 1538 1539 1540 1540 1541 1544 1547 1548 1552 1555 1557 1558 1560 1562 1563 1560
1565 1561 1558 1557 1555 1553 1554 1549 1545 1542 1540 1539 1538 1536 1537 1538 1538 1537 1538 1539 1540 1543 1543 1542 1550 1553 1556 1558 1560 1562 1563 1561
1566 1561 1558 1558 1558 1556 1554 1548 1546 1541 1538 1536 1535 1534 1535 1535 1536 1536 1536 1537 1538 1541 1542 1544 1548 1552 1554 1558 1560 1562 1563 1562
1566 1562 1558 1556 1555 1553 1551 1551 1547 1540 1538 1535 1532 1532 1534 1534 1534 1534 1535 1534 1534 1539 1540 1544 1546 1550 1553 1557 1558 1562 1561 1561
1566 1564 1559 1556 1555 1552 1551 1550 1547 1543 1539 1535 1530 1533 1533 1532 1532 1532 1533 1533 1533 1538 1539 1542 1545 1548 1551 1555 1557 1560 1560 1561
1564 1563 1559 1558 1556 1553 1551 1549 1548 1546 1543 1534 1534 1534 1530 1528 1528 1529 1530 1531 1533 1536 1539 1541 1543 1547 1550 1553 1555 1557 1559 1560
1562 1562 1559 1557 1556 1554 1552 1550 1548 1545 1543 1535 1533 1531 1528 1526 1526 1525 1528 1529 1531 1533 1536 1540 1542 1544 1548 1551 1552 1555 1558 1558
1560 1561 1558 1555 1555 1553 1552 1549 1546 1544 1542 1537 1532 1530 1527 1525 1523 1523 1525 1526 1527 1530 1533 1536 1540 1542 1544 1547 1549 1550 1553 1558
1557 1558 1556 1554 1552 1551 1550 1548 1545 1542 1540 1537 1530 1527 1524 1521 1521 1520 1521 1522 1524 1526 1530 1532 1535 1538 1541 1544 1547 1549 1552 1555
1555 1554 1553 1550 1550 1549 1548 1547 1543 1541 1539 1536 1529 1526 1523 1520 1520 1519 1517 1519 1520 1523 1524 1528 1530 1531 1536 1540 1545 1548 1550 1553
1552 1550 1549 1547 1547 1547 1545 1546 1542 1539 1536 1534 1529 1524 1523 1519 1518 1516 1515 1515 1516 1519 1520 1524 1528 1525 1533 1538 1543 1545 1548 1551
1547 1547 1546 1545 1545 1543 1542 1543 1540 1537 1534 1532 1528 1523 1522 1519 1516 1515 1513 1511 1511 1513 1515 1519 1524 1523 1532 1537 1541 1544 1548 1549
1543 1542 1541 1541 1545 1542 1538 1539 1537 1535 1533 1530 1528 1523 1519 1517 1514 1512 1510 1510 1509 1511 1512 1515 1517 1523 1531 1535 1540 1542 1546 1548
1540 1536 1535 1541 1537 1538 1536 1536 1535 1532 1531 1528 1527 1523 1518 1516 1513 1511 1509 1509 1508 1506 1506 1511 1515 1519 1524 1531 1535 1540 1541 1544
1539 1536 1535 1540 1538 1533 1533 1534 1532 1530 1527 1525 1524 1522 1516 1515 1513 1510 1507 1508 1508 1504 1506 1509 1511 1515 1519 1524 1530 1532 1536 1541
1536 1535 1534 1537 1534 1531 1532 1531 1530 1528 1525 1523 1521 1517 1515 1513 1512 1510 1508 1508 1506 1503 1504 1505 1506 1509 1514 1518 1525 1525 1533 1539
1535 1534 1533 1534 1532 1530 1530 1529 1528 1525 1524 1520 1519 1516 1515 1512 1511 1509 1507 1507 1506 1504 1503 1503 1506 1507 1509 1515 1521 1524 1528 1533
1536 1533 1532 1531 1530 1530 1528 1528 1526 1524 1521 1518 1515 1513 1512 1510 1509 1507 1506 1504 1502 1502 1503 1502 1503 1503 1505 1508 1514 1517 1522 1527
1534 1532 1531 1530 1529 1528 1527 1525 1524 1522 1520 1516 1514 1511 1510 1509 1507 1504 1502 1501 1502 1503 1503 1503 1504 1502 1501 1503 1510 1513 1518 1525
1533 1532 1530 1528 1527 1526 1525 1524 1522 1520 1518 1515 1513 1511 1509 1507 1505 1503 1501 1501 1501 1501 1501 1502 1500 1500 1501 1504 1507 1511 1516 1519